Location: Estherville
(43.4020°N, 94.8330°W)
Time: 21:49:48
(UTC-05:00)

Envisat - Visible Passes

Search period start: 23 March 2019 00:00
Search period end: 02 April 2019 00:00
Orbit: 764 x 766 km, 98.2° (Epoch: 22 March)

Date Brightness Start Highest point End Pass type
(mag) Time Alt. Az. Time Alt. Az. Time Alt. Az.
23 Mar 6.0 21:25:06 10° WSW 21:27:33 13° W 21:30:00 10° WNW visible
24 Mar 5.1 20:46:02 10° SSW 20:50:25 29° W 20:54:50 10° NW visible
25 Mar 3.6 20:08:28 10° S 20:13:30 64° W 20:18:33 10° NNW visible
26 Mar 5.8 21:12:55 10° SW 21:16:12 17° W 21:19:29 10° NW visible
27 Mar 4.7 20:34:28 10° SSW 20:39:07 37° W 20:43:50 10° NNW visible
29 Mar 5.6 21:01:01 10° SW 21:04:51 21° W 21:08:44 10° NW visible
30 Mar 4.2 20:23:00 10° S 20:27:52 46° W 20:32:45 10° NNW visible
31 Mar 6.1 21:28:43 10° WSW 21:30:42 12° W 21:32:41 10° WNW visible
01 Apr 5.2 20:49:17 10° SSW 20:53:33 27° W 20:57:50 10° NW visible
